www.pogodaiklimat.ru

Погода и климат >> Архив погоды >> Ирак >> Rifai


ПОГОДА в Rifai

  • Прогноз погоды в Rifai
  • Монитор погоды в Rifai
  • Климат города

АРХИВ ПОГОДЫ в Rifai

Время (UTC), дата Ветер
(напр.,м/с)
 
Видим.   Явления Облачность Т
(С)
Тd
(С)
f
(%)
Тe
(С)
Тes
(С)
Комфортность P
(гПа)
Po
(гПа)
Тmin
(С)
Tmax
(С)
R
(мм)
R24
(мм)
S
(см)
00 13.09 СЗ 2 10 км ясно +31.2 +2.7 16 +29 +29 жарко 1005.6 1006.0
06 13.09 З 5 6000 м пыль ясно +38.2 +0.6 10 +35 +39 очень
жарко
1006.0 1006.0 +29.0
09 13.09 СЗ 10 2000 м пыльный позёмок ясно +46.0 -7.7 3 +41 +42 опасность
перегрева
1004.8 1005.0
12 13.09 СЗ 9 2000 м пыльный позёмок ясно +46.8 -4.4 4 +42 +43 опасность
перегрева
1003.2 1003.0
15 13.09 СЗ 5 5000 м пыль ясно +43.0 +1.9 8 +39 +39 очень
жарко
1002.4 1002.0
18 13.09 З 5 8000 м пыль ясно +37.6 +4.1 13 +35 +35 очень
жарко
1003.1 1003.0 +46.8
21 13.09 СЗ 5 8000 м пыль ясно +34.4 +3.3 14 +31 +31 жарко 1001.7 1002.0
00 14.09 З 6 10 км ясно +31.2 +4.2 18 +29 +29 жарко 1001.6 1002.0
06 14.09 С 4 10 км ясно +33.8 +5.6 17 +31 +37 жарко 1003.7 1004.0 +27.4
09 14.09 С 2 10 км ясно +43.8 +5.0 10 +41 +58 опасность
перегрева
1003.3 1003.0
12 14.09 СЗ 2 10 км ясно +46.4 +4.8 8 +43 +51 опасность
перегрева
1002.0 1002.0
15 14.09 СЗ 2 10 км ясно +42.8 +7.0 12 +40 +40 очень
жарко
1002.4 1002.0
18 14.09 СЗ 2 10 км ясно +36.8 +8.5 18 +35 +35 очень
жарко
1003.8 1004.0 +47.0
21 14.09 СЗ 3 10 км ясно +34.4 +8.7 21 +33 +33 жарко 1003.2 1003.0
00 15.09 СЗ 2 10 км ясно +31.6 +8.8 24 +31 +31 жарко 1003.1 1003.0
03 15.09 СЗ 3 8000 м ясно +30.0 +9.3 28 +30 +30 жарко 1003.8 1004.0
06 15.09 З 5 5000 м пыль ясно +34.0 +12.3 27 +34 +39 очень
жарко
1004.9 1005.0 +28.2
09 15.09 З 5 4000 м пыль ясно +42.0 +11.6 17 +41 +50 опасность
перегрева
1004.8 1005.0
12 15.09 СЗ 7 5000 м пыль ясно +45.4 +9.6 12 +44 +46 опасность
перегрева
1004.0 1004.0
03 16.09 СЗ 4 10 км ясно +28.4 +9.9 32 +29 +29 жарко 1006.0 1006.0
15 16.09 СЗ 4 10 км ясно +40.2 +10.4 17 +39 +39 очень
жарко
1005.0 1005.0
03 17.09 СЗ 3 10 км ясно +29.6 +6.9 24 +28 +28 жарко 1004.8 1005.0
09 17.09 СЗ 5 5000 м пыль ясно +43.8 +8.8 13 +42 +51 опасность
перегрева
1004.8 1005.0
15 17.09 С 3 4000 м пыль ясно +41.0 +11.4 17 +40 +40 очень
жарко
1003.6 1004.0
21 17.09 СЗ 3 8000 м пыль ясно +33.0 +11.2 26 +33 +33 жарко 1004.4 1004.0
03 18.09 СЗ 2 10 км 3/0
[Ac trans]
+29.8 +11.1 31 +30 +30 жарко 1004.6 1005.0
09 18.09 С 2 10 км ясно +44.0 +10.3 14 +43 +59 опасность
перегрева
1005.4 1005.0
15 18.09 СЗ 2 10 км ясно +42.6 +11.1 16 +42 +42 опасность
перегрева
1003.5 1004.0
21 18.09 штиль 0 10 км ясно +33.0 +13.1 30 +34 +34 очень
жарко
1005.1 1005.0
00 19.09 В 3 10 км ясно +31.0 +9.9 27 +31 +31 жарко 1004.6 1005.0
03 19.09 ЮВ 2 10 км 3/0
[Ac cast]
+29.4 +14.2 39 +31 +31 жарко 1005.2 1005.0
06 19.09 Ю 2 10 км 1/0
[Ac trans]
+33.4 +18.4 41 +38 +46 очень
душно
1007.0 1007.0 +28.0
09 19.09 штиль 0 10 км ясно +40.6 +13.8 21 +41 +62 опасность
перегрева
1006.8 1007.0
12 19.09 штиль 0 10 км 3/0
[]
+44.4 +8.0 12 +42 +51 опасность
перегрева
1003.9 1004.0
15 19.09 Ю 2 10 км 4/0
[Ac trans]
+41.6 +10.8 16 +40 +40 очень
жарко
1003.1 1003.0

 

Местоположение метеостанции Rifai (Ирак): широта 31.72 долгота 46.10 высота над уровнем моря 6 м.

В архиве по умолчанию представлена погода в Rifai за последнюю неделю. Архивные данные за месяц целиком и за предыдущие месяцы, начиная с января 2011 года, Вы можете получить, выбрав интересующий диапазон дат из раскрывающегося списка и нажав кнопку "Ввод!".


*Определитесь, кто Вы:
робот инопланетянин человек

Внимание! Время в таблицах - всемирное. Для получения местного времени необходимо прибавить поправку, которая в Rifai равна 3 ч.

Смотрите также архив погоды в соседних городах и на ближайших метеорологических станциях:

Погода в Kut-Al-Hai (Ирак) (50 км)
Погода в Nasiriya (Ирак) (72 км)
Погода в Samawah (Ирак) (92 км)
Погода в Ubaydah Bin Al Jarrah (Ирак) (92 км)
Погода в Ali Al-Gharbi (Ирак) (102 км)
Погода в Amarah (Ирак) (102 км)
Погода в Diwaniya (Ирак) (110 км)
Погода в Badrah (Ирак) (154 км)
Погода в Azizyah (Ирак) (165 км)
Погода в Najaf (Ирак) (171 км)

Пояснения к столбцам:

Ветер - указаны скорость ветра в м/с - средняя за 10 мин, порывы в срок и между сроками (в фигурных скобках) и направление, откуда дует ветер: С - северный, СВ - северо-восточный, В - восточный, ЮВ - юго-восточный, Ю - южный, ЮЗ - юго-западный, З - западный, СЗ - северо-западный.
Видимость - горизонтальная дальность видимости в метрах или километрах. При видимости от 1 до 10 км при отсутствии осадков обычно наблюдается дымка, при ухудшении видимости до 1 км и менее - туман. В сухую погоду видимость может ухудшаться дымом, пылью или мглою.
Явления - указаны атмосферные явления, наблюдавшиеся в срок или в последний час перед сроком; фигурными скобками обозначены явления, наблюдавшиеся между сроками (за 1-3 часа до срока); квадратными скобками обозначены град или гололедные отложения с указанием их диаметра в мм.
Облачность - указаны через наклонную черту общая и нижняя облачность в баллах и высота нижней границы облаков в метрах; квадратными скобками обозначены формы облаков: Ci - перистые, Cs - перисто-слоистые, Cc - перисто-кучевые, Ac - высококучевые, As - высокослоистые, Sc - слоисто-кучевые, Ns - слоисто-дождевые, Cu - кучевые, Cb - кучево-дождевые. Подробнее классификацию облаков см. в Атласе облаков (PDF).
T - Температура воздуха - температура, измеренная на высоте 2 м над землей.
Td - Температура точки росы - температура, при понижении до которой содержащийся в воздухе водяной пар достигнет насыщения.
f - Относительная влажность воздуха - влажноcть воздуха, измеренная на высоте 2 м над землей.
Te - Эффективная температура - температура, которую ощущает одетый по сезону человек в тени. Характеристика душности погоды. При расчете учитывается влияние влажности воздуха и скорости ветра на теплоощущения человека.
Tes - Эффективная температура на солнце - температура, которую ощущает человек, с поправкой на солнечный нагрев. Характеристика знойности погоды. Зависит от высоты солнца над горизонтом, облачности и скорости ветра. Ночью, в пасмурную погоду, а также при ветре 12 м/с и более поправка равна нулю.
P - Атмосферное давление - приведенное к уровню моря атмосферное давление.
Po - Атмосферное давление - измеренное на уровне метеостанции атмосферное давление.
Tmin - Минимальная температура - минимум температуры воздуха на высоте 2 м над землей.
Tmax - Максимальная температура - максимум температуры воздуха на высоте 2 м над землей.
R - Количество осадков - Количество выпавших осадков за период времени, мм. При наведении курсора мыши на число - период времени, за который выпало указанное количество осадков.
R24 - Количество осадков - Количество выпавших осадков за 24 часа, мм.
S - Снежный покров - Высота снежного покрова, см. При наведении курсора мыши на число - состояние снежного покрова и степень покрытия местности в баллах.